• In Russia
  • List of Countries
  • For 7 days
  • Water Temperature
  • Satellite Maps
  • Weather Map
  • Weather Widgets
  • user-avatar
    Login

    Hourly Weather Pakoslaw

    Today, 17 October, Wednesday

    Time Temperature Precipitation Wind Pressure Humidity
    00:00 +14°C° 0 mm 2 mps 756 mmHg 63%
    01:00 +14°C° 0 mm 2 mps 756 mmHg 64%
    02:00 +13°C° 0 mm 2 mps 756 mmHg 64%
    03:00 +13°C° 0 mm 2 mps 756 mmHg 64%
    04:00 +13°C° 0 mm 2 mps 756 mmHg 64%
    05:00 +13°C° 0 mm 2 mps 756 mmHg 64%
    06:00 +13°C° 0 mm 2 mps 756 mmHg 64%
    07:00 +12°C° 0 mm 2 mps 756 mmHg 64%
    08:00 +14°C° 0 mm 2 mps 756 mmHg 58%
    09:00 +16°C° 0 mm 3 mps 756 mmHg 53%
    10:00 +18°C° 0 mm 3 mps 756 mmHg 47%
    11:00 +19°C° 0 mm 3 mps 756 mmHg 45%
    12:00 +21°C° 0 mm 3 mps 756 mmHg 42%
    13:00 +22°C° 0 mm 3 mps 756 mmHg 40%
    14:00 +21°C° 0 mm 3 mps 756 mmHg 43%
    15:00 +21°C° 0 mm 2 mps 755 mmHg 46%
    16:00 +20°C° 0 mm 2 mps 755 mmHg 49%
    17:00 +19°C° 0 mm 2 mps 755 mmHg 53%
    18:00 +17°C° 0 mm 2 mps 755 mmHg 56%
    19:00 +16°C° 0 mm 2 mps 756 mmHg 59%
    20:00 +16°C° 0 mm 2 mps 756 mmHg 61%
    21:00 +15°C° 0 mm 2 mps 756 mmHg 62%
    22:00 +15°C° 0 mm 2 mps 756 mmHg 64%
    23:00 +15°C° 0.1 mm 2 mps 756 mmHg 66%

    Tomorrow, 18 October, Thursday

    Time Temperature Precipitation Wind Pressure Humidity
    00:00 +14°C° 0.1 mm 2 mps 756 mmHg 68%
    01:00 +14°C° 0.1 mm 2 mps 756 mmHg 70%
    02:00 +14°C° 0 mm 2 mps 756 mmHg 72%
    03:00 +13°C° 0 mm 2 mps 756 mmHg 75%
    04:00 +13°C° 0 mm 1 mps 755 mmHg 77%
    05:00 +13°C° 0 mm 1 mps 755 mmHg 77%
    06:00 +13°C° 0 mm 1 mps 755 mmHg 78%
    07:00 +12°C° 0 mm 1 mps 755 mmHg 79%
    08:00 +14°C° 0 mm 1 mps 756 mmHg 72%
    09:00 +16°C° 0 mm 1 mps 756 mmHg 66%
    10:00 +18°C° 0 mm 1 mps 756 mmHg 59%
    11:00 +18°C° 0 mm 2 mps 756 mmHg 56%
    12:00 +19°C° 0 mm 2 mps 755 mmHg 53%
    13:00 +20°C° 0 mm 2 mps 755 mmHg 50%
    14:00 +20°C° 0 mm 2 mps 755 mmHg 52%
    15:00 +19°C° 0 mm 2 mps 755 mmHg 54%
    16:00 +19°C° 0 mm 2 mps 755 mmHg 57%
    17:00 +19°C° 0 mm 1 mps 755 mmHg 61%
    18:00 +16°C° 0 mm 1 mps 756 mmHg 65%
    19:00 +15°C° 0 mm 1 mps 756 mmHg 69%
    20:00 +15°C° 0 mm 2 mps 756 mmHg 72%
    21:00 +14°C° 0 mm 2 mps 756 mmHg 75%
    22:00 +14°C° 0 mm 2 mps 757 mmHg 78%
    23:00 +13°C° 0 mm 2 mps 757 mmHg 82%

    Day after tomorrow, 19 October, Friday

    Time Temperature Precipitation Wind Pressure Humidity
    00:00 +13°C° 0 mm 2 mps 757 mmHg 86%
    01:00 +12°C° 0 mm 2 mps 757 mmHg 90%
    02:00 +12°C° 0 mm 2 mps 757 mmHg 91%
    03:00 +12°C° 0 mm 2 mps 757 mmHg 93%
    04:00 +10°C° 0 mm 2 mps 757 mmHg 95%
    05:00 +10°C° 0 mm 2 mps 757 mmHg 94%
    06:00 +12°C° 0 mm 2 mps 758 mmHg 93%
    07:00 +12°C° 0 mm 2 mps 758 mmHg 91%
    08:00 +13°C° 0 mm 2 mps 758 mmHg 85%
    09:00 +14°C° 0 mm 2 mps 758 mmHg 78%
    10:00 +14°C° 0 mm 3 mps 759 mmHg 72%
    11:00 +16°C° 0 mm 3 mps 759 mmHg 67%
    12:00 +16°C° 0 mm 3 mps 759 mmHg 63%
    13:00 +17°C° 0 mm 3 mps 759 mmHg 58%
    14:00 +17°C° 0 mm 3 mps 759 mmHg 59%
    15:00 +16°C° 0 mm 2 mps 759 mmHg 60%
    16:00 +16°C° 0 mm 2 mps 759 mmHg 60%
    17:00 +15°C° 0 mm 2 mps 759 mmHg 63%
    18:00 +14°C° 0 mm 2 mps 759 mmHg 66%
    19:00 +12°C° 0 mm 2 mps 759 mmHg 69%
    20:00 +12°C° 0 mm 2 mps 760 mmHg 70%
    21:00 +10°C° 0 mm 2 mps 760 mmHg 71%
    22:00 +10°C° 0 mm 2 mps 760 mmHg 72%
    23:00 +9°C° 0 mm 2 mps 760 mmHg 74%

    20 October, Saturday

    Time Temperature Precipitation Wind Pressure Humidity
    00:00 +9°C° 0 mm 2 mps 760 mmHg 76%
    01:00 +9°C° 0 mm 2 mps 760 mmHg 78%
    02:00 +8°C° 0 mm 2 mps 760 mmHg 80%
    03:00 +8°C° 0 mm 2 mps 760 mmHg 82%
    04:00 +8°C° 0 mm 2 mps 760 mmHg 84%
    05:00 +7°C° 0 mm 2 mps 761 mmHg 86%
    06:00 +7°C° 0 mm 2 mps 761 mmHg 88%
    07:00 +7°C° 0 mm 2 mps 761 mmHg 90%
    08:00 +8°C° 0 mm 2 mps 762 mmHg 84%
    09:00 +9°C° 0 mm 3 mps 762 mmHg 77%
    10:00 +11°C° 0 mm 3 mps 762 mmHg 71%
    11:00 +12°C° 0 mm 3 mps 762 mmHg 66%
    12:00 +12°C° 0 mm 3 mps 762 mmHg 62%
    13:00 +13°C° 0 mm 3 mps 762 mmHg 58%
    14:00 +13°C° 0 mm 3 mps 762 mmHg 59%
    15:00 +12°C° 0 mm 3 mps 762 mmHg 61%
    16:00 +12°C° 0 mm 3 mps 762 mmHg 62%
    17:00 +11°C° 0 mm 3 mps 762 mmHg 62%
    18:00 +11°C° 0 mm 3 mps 763 mmHg 62%
    19:00 +10°C° 0 mm 3 mps 763 mmHg 63%
    20:00 +10°C° 0 mm 3 mps 763 mmHg 62%
    21:00 +10°C° 0 mm 2 mps 763 mmHg 61%
    22:00 +10°C° 0 mm 2 mps 764 mmHg 60%
    23:00 +10°C° 0 mm 2 mps 763 mmHg 61%

    21 October, Sunday

    Time Temperature Precipitation Wind Pressure Humidity
    00:00 +9°C° 0 mm 2 mps 763 mmHg 62%
    01:00 +9°C° 0 mm 2 mps 763 mmHg 64%
    02:00 +8°C° 0 mm 2 mps 763 mmHg 65%
    03:00 +8°C° 0 mm 2 mps 763 mmHg 67%
    04:00 +8°C° 0 mm 2 mps 763 mmHg 68%
    05:00 +8°C° 0 mm 2 mps 763 mmHg 69%
    06:00 +8°C° 0 mm 3 mps 763 mmHg 69%
    07:00 +8°C° 0 mm 3 mps 763 mmHg 69%
    08:00 +8°C° 0 mm 3 mps 763 mmHg 69%
    09:00 +9°C° 0 mm 3 mps 763 mmHg 70%
    10:00 +9°C° 0 mm 3 mps 763 mmHg 70%
    11:00 +10°C° 0 mm 3 mps 763 mmHg 70%
    12:00 +10°C° 0 mm 3 mps 762 mmHg 70%
    13:00 +11°C° 0 mm 3 mps 762 mmHg 70%
    14:00 +12°C° 0 mm 2 mps 762 mmHg 71%
    15:00 +12°C° 0 mm 2 mps 762 mmHg 71%
    16:00 +12°C° 0 mm 2 mps 761 mmHg 72%
    17:00 +11°C° 0 mm 1 mps 761 mmHg 77%
    18:00 +10°C° 0 mm 1 mps 761 mmHg 81%
    19:00 +9°C° 0 mm 1 mps 762 mmHg 86%
    20:00 +8°C° 0 mm 1 mps 762 mmHg 87%
    21:00 +8°C° 0 mm 1 mps 762 mmHg 88%
    22:00 +8°C° 0 mm 1 mps 762 mmHg 88%
    23:00 +8°C° 0 mm 1 mps 762 mmHg 89%

    22 October, Monday

    Time Temperature Precipitation Wind Pressure Humidity
    00:00 +7°C° 0 mm 1 mps 761 mmHg 89%
    01:00 +7°C° 0 mm 1 mps 761 mmHg 90%
    02:00 +6°C° 0 mm 2 mps 761 mmHg 90%
    03:00 +6°C° 0 mm 2 mps 761 mmHg 90%
    04:00 +5°C° 0 mm 2 mps 761 mmHg 90%
    05:00 +5°C° 0 mm 2 mps 761 mmHg 90%
    06:00 +5°C° 0 mm 2 mps 761 mmHg 89%
    07:00 +5°C° 0 mm 2 mps 761 mmHg 88%
    08:00 +7°C° 0 mm 2 mps 761 mmHg 80%
    09:00 +9°C° 0 mm 3 mps 761 mmHg 72%
    10:00 +11°C° 0 mm 3 mps 761 mmHg 64%
    11:00 +11°C° 0.1 mm 3 mps 761 mmHg 67%
    12:00 +10°C° 0.1 mm 4 mps 761 mmHg 69%
    13:00 +10°C° 0.1 mm 4 mps 761 mmHg 71%
    14:00 +10°C° 0.1 mm 4 mps 761 mmHg 73%
    15:00 +10°C° 0.1 mm 3 mps 761 mmHg 76%
    16:00 +10°C° 0.1 mm 3 mps 761 mmHg 78%
    17:00 +9°C° 0 mm 3 mps 762 mmHg 77%
    18:00 +9°C° 0 mm 3 mps 762 mmHg 75%
    19:00 +8°C° 0 mm 3 mps 762 mmHg 74%
    20:00 +7°C° 0 mm 3 mps 762 mmHg 75%
    21:00 +7°C° 0 mm 3 mps 762 mmHg 75%
    22:00 +5°C° 0 mm 3 mps 762 mmHg 76%
    23:00 +6°C° 0 mm 2 mps 762 mmHg 77%
    Show more